Miscellaneous Local Product
Issued by NWS North Platte, NE

Home | Current Version | Previous Version | Graphics & Text | Print | Product List | Glossary On
Versions: 1 2 3 4 5 6 7 8 9 10 11 12 13 14 15 16 17 18 19 20 21 22 23 24 25 26 27 28 29 30 31 32 33 34 35 36 37 38 39 40 41 42 43 44 45 46 47 48 49 50
455
AXUS43 KLBF 240710
MISLBF


WESTERN AND NORTH CENTRAL NEBRASKA HOURLY WEATHER ROUNDUP
NATIONAL WEATHER SERVICE NORTH PLATTE NE
200 AM CDT SUN SEP 24 2017

NOTE: "FAIR" INDICATES FEW OR NO CLOUDS BELOW 12,000 FEET WITH NO
SIGNIFICANT WEATHER AND/OR OBSTRUCTIONS TO VISIBILITY.

NOTE: STATIONS NOT REPORTING VARIABLES SUCH AS SKY/WEATHER OR
PRESSURE ARE PROVIDED BY RAWS AND APRS NETWORKS AND ARE NOT UNDER
NATIONAL WEATHER SERVICE QUALITY CONTROL.

...OBSERVATIONS IN AND NEAR THE EASTERN PANHANDLE OF NEBRASKA...

CITY           SKY/WX    TMP DP  RH WIND       PRES   REMARKS
PINE RIDGE     LGT RAIN  47  47 100 N8        29.98S
GORDON         DRIZZLE   46  45  95 N9        29.95F
CHADRON        LGT RAIN  46  44  93 NE9       29.97F
ALLIANCE       LGT RAIN  45  43  93 N8        29.96F
SIDNEY         LGT RAIN  44  43  96 NE12      29.94F
CRESCENT LAKE    N/A     45  45 100 N9          N/A
$$

...OBSERVATIONS IN NORTHERN NEBRASKA AND FAR SOUTHERN SOUTH DAKOTA...

CITY           SKY/WX    TMP DP  RH WIND       PRES   REMARKS
WINNER         RAIN      52  50  93 N6        29.91F
VALENTINE      LGT RAIN  51  50  96 N6        29.93R
THEDFORD       RAIN      50  49  97 NW6       29.93S
AINSWORTH      RAIN      50  50 100 N5        29.91F
O`NEILL        CLOUDY    54  54 100 NW7       29.90S FOG
ORD            CLOUDY    58  55  90 N5        29.88F
BROKEN BOW     LGT RAIN  54  54 100 N6        29.90S
HALSEY           N/A     50  50  99 CALM        N/A
BUTTE            N/A     52  51  97 N5          N/A
CHAMBERS         N/A     56  55  98 CALM        N/A
EWING            N/A     56  55  96 CALM        N/A
$$

...OBSERVATIONS IN SOUTHWEST NEBRASKA AND FAR NORTHEAST COLORADO...

CITY           SKY/WX    TMP DP  RH WIND       PRES   REMARKS
WRAY           CLOUDY   N/A N/A N/A NW10G16   29.94F
HOLYOKE        LGT RAIN  48  45  87 N13       29.95R
IMPERIAL       LGT RAIN  51  49  92 N15       29.91S
OGALLALA       DRIZZLE   50  49  94 N12       29.93F
NORTH PLATTE   RAIN      53  53 100 N3        29.90R FOG
MCCOOK         CLOUDY    58  58 100 E9        29.84F
LEXINGTON      CLOUDY    58  56  94 NE5       29.87F
STAPLETON        N/A     49  48  97 CALM        N/A
CALLAWAY         N/A     54  53  97 E6          N/A
$$

...OBSERVATIONS IN CENTRAL LINCOLN COUNTY AREA...

CITY           SKY/WX    TMP DP  RH WIND       PRES   REMARKS
N.P. AIRPORT   RAIN      53  53 100 N3        29.90R FOG
N.P. DOWNTOWN    N/A     52  51  97 CALM        N/A
N.P. SOUTHEAST   N/A     51  50  96 CALM        N/A
N.P. HILLCREST   N/A     51  50  97 N5          N/A
$$

...SOME OBSERVATIONS FROM AROUND THE REGION...

CITY           SKY/WX    TMP DP  RH WIND       PRES   REMARKS
DENVER         CLOUDY    45  42  89 NE3       29.99F
LIMON            N/A    N/A N/A N/A MISG      29.92F
ASPEN          CLOUDY    36  33  89 SW5       29.92F WCI  32
LARAMIE        CLOUDY    39  36  89 SE8       29.97S WCI  33
CASPER         CLOUDY    37  36  96 N10       30.03S WCI  30
CHEYENNE       CLOUDY    42  41  96 CALM      30.00R
SCOTTSBLUFF    LGT RAIN  46  43  89 S3        29.96S
GRAND ISLAND   CLOUDY    70  63  78 SE10      29.87F
OMAHA          MOCLDY    74  65  73 S10       29.91S
SIOUX FALLS    CLOUDY    59  58  96 E7        29.90F
PIERRE         LGT RAIN  52  51  97 N3        29.91F
BISMARCK       RAIN      49  48  97 N13       30.02F
KANSAS CITY    CLEAR     72  67  84 SE7       29.95S
HILL CITY      LGT RAIN  65  64  97 E3        29.87F
WICHITA        PTCLDY    75  66  73 SE13      29.91R
DODGE CITY     MOCLDY    73  61  65 S17       29.89R
OKLAHOMA CITY  PTCLDY    72  65  78 S8        29.90S
DALLAS         PTCLDY    80  67  64 S10       29.87S
$$




USA.gov is the U.S. government's official web portal to all federal, state and local government web resources and services.